WetterOnline ( http://www.wetteronline.de )

Wetter aktuell Mannheim

Aktuelles Wetter: Mannheim (100m)

6-stündlich | Neueste Meldungen
Ortszeit Temperatur Wetter
So, 22.04. 8:00 14.0° C wolkenlos
So, 22.04. 2:00 15.1° C fast wolkenlos
Sa, 21.04. 20:00 24.1° C wolkig
Sa, 21.04. 14:00 25.9° C wolkenlos
Sa, 21.04. 8:00 12.5° C wolkenlos
Sa, 21.04. 2:00 10.8° C wolkig
Fr, 20.04. 20:00 21.4° C leicht bewölkt
Fr, 20.04. 14:00 25.1° C wolkig
Ortszeit Temperatur Wetter
So, 22.04. 10:30 20.0° C leicht bewölkt
So, 22.04. 10:20 20.0° C leicht bewölkt
So, 22.04. 10:10 20.0° C leicht bewölkt
So, 22.04. 10:00 18.4° C fast wolkenlos
So, 22.04. 9:50 18.4° C fast wolkenlos
So, 22.04. 9:40 18.5° C fast wolkenlos
So, 22.04. 9:30 17.4° C wolkenlos
So, 22.04. 9:00 16.8° C wolkenlos
So, 22.04. 8:30 15.4° C wolkenlos
So, 22.04. 8:00 14.0° C wolkenlos
So, 22.04. 7:30 11.5° C wolkenlos
Ortszeit Relative Feuchte Sichtweite
So, 22.04. 8:00 88% 5.0 km
So, 22.04. 2:00 82% 15 km
Sa, 21.04. 20:00 43% 35 km
Sa, 21.04. 14:00 44% 20 km
Sa, 21.04. 8:00 86% 11 km
Sa, 21.04. 2:00 97% 13 km
Fr, 20.04. 20:00 62% 50 km
Fr, 20.04. 14:00 40% 18 km
Ortszeit Relative Feuchte Sichtweite
So, 22.04. 10:30 65% 8 km
So, 22.04. 10:20 65% -
So, 22.04. 10:10 71% -
So, 22.04. 10:00 71% 6 km
So, 22.04. 9:50 71% -
So, 22.04. 9:40 73% -
So, 22.04. 9:30 76% 6 km
So, 22.04. 9:00 75% 7 km
So, 22.04. 8:30 81% 6 km
So, 22.04. 8:00 88% 5.0 km
So, 22.04. 7:30 94% 4.0 km
Ortszeit Niederschlagsmenge Niederschlagsart
So, 22.04. 8:00 0.0 l/m2 in 12 Std. -
So, 22.04. 2:00 0.0 l/m2 in 6 Std. -
Sa, 21.04. 20:00 0.0 l/m2 in 12 Std. -
Sa, 21.04. 14:00 0.0 l/m2 in 6 Std. -
Sa, 21.04. 8:00 0.0 l/m2 in 12 Std. -
Sa, 21.04. 2:00 0.0 l/m2 in 6 Std. -
Fr, 20.04. 20:00 0.0 l/m2 in 12 Std. -
Fr, 20.04. 14:00 0.0 l/m2 in 6 Std. -
Ortszeit Niederschlagsmenge Niederschlagsart
So, 22.04. 10:30 0.0 l/m2 in 1 Std. -
So, 22.04. 10:20 keine Meldung -
So, 22.04. 10:10 keine Meldung -
So, 22.04. 10:00 0.0 l/m2 in 1 Std. -
So, 22.04. 9:50 keine Meldung -
So, 22.04. 9:40 keine Meldung -
So, 22.04. 9:30 0.0 l/m2 in 1 Std. -
So, 22.04. 9:00 0.0 l/m2 in 1 Std. -
So, 22.04. 8:30 0.0 l/m2 in 1 Std. -
So, 22.04. 8:00 0.0 l/m2 in 1 Std. -
So, 22.04. 7:30 0.0 l/m2 in 1 Std. -
Ortszeit Stärke Spitze Richtung
km/h Bft. km/h Grad Sektor
So, 22.04. 8:00 6 1 13 290° W
So, 22.04. 2:00 4 1 11 320° NW
Sa, 21.04. 20:00 7 2 14 10° N
Sa, 21.04. 14:00 4 1 14 300° NW
Sa, 21.04. 8:00 0 0 11 - -
Sa, 21.04. 2:00 0 0 7 - -
Fr, 20.04. 20:00 4 1 14 330° NW
Fr, 20.04. 14:00 6 1 13 230° SW
Ortszeit Stärke Spitze Richtung
km/h Bft. km/h Grad Sektor
So, 22.04. 10:30 7 2 14 160° S
So, 22.04. 10:20 7 2 - 160° S
So, 22.04. 10:10 6 1 - 160° S
So, 22.04. 10:00 2 1 9 330° NW
So, 22.04. 9:50 2 1 - 330° NW
So, 22.04. 9:40 4 1 - 20° N
So, 22.04. 9:30 7 2 11 130° SO
So, 22.04. 9:00 4 1 11 90° O
So, 22.04. 8:30 6 1 9 310° NW
So, 22.04. 8:00 6 1 9 290° W
So, 22.04. 7:30 2 1 4 280° W
Ortszeit Untergrenze Bedeckung Gattung
total tief tief mittel hoch
So, 22.04. 8:00 - 0/8 0/8 - - -
So, 22.04. 2:00 3300 m 1/8 1/8 - - -
Sa, 21.04. 20:00 10500 m 8/8 0/8 - - -
Sa, 21.04. 14:00 - 0/8 0/8 - - -
Sa, 21.04. 8:00 - 0/8 0/8 - - -
Sa, 21.04. 2:00 9000 m 8/8 0/8 - - -
Fr, 20.04. 20:00 10500 m 7/8 0/8 - - -
Fr, 20.04. 14:00 - 8/8 - - - -
Ortszeit Bedeckungsgrad in Achtel und Wolkenuntergrenze
So, 22.04. 10:30 5(9000m)
So, 22.04. 10:20 5(9000m)
So, 22.04. 10:10 6(9000m)
So, 22.04. 10:00 1(10500m)
So, 22.04. 9:50 1(10500m)
So, 22.04. 9:40 1(10500m)
So, 22.04. 9:30 keine Wolken
So, 22.04. 9:00 keine Wolken
So, 22.04. 8:30 keine Wolken
So, 22.04. 8:00 keine Wolken
So, 22.04. 7:30 keine Wolken
Ortszeit Luftdruck NN (hPa) Tendenz (hPa in 3 Std.)
So, 22.04. 8:00 1016 - 0,3
So, 22.04. 2:00 1017 - 0,1
Sa, 21.04. 20:00 1017 - 1,1
Sa, 21.04. 14:00 1019 - 1,4
Sa, 21.04. 8:00 1021 + 0,8
Sa, 21.04. 2:00 1021 - 0,3
Fr, 20.04. 20:00 1020 - 1,1
Fr, 20.04. 14:00 1023 - 1,0
Ortszeit Luftdruck NN (hPa) Tendenz (hPa in 3 Std.)
So, 22.04. 10:30 1016 + 0,4
So, 22.04. 10:20 1016 keine Meldung
So, 22.04. 10:10 1015 keine Meldung
So, 22.04. 10:00 1016 + 0,4
So, 22.04. 9:50 1016 keine Meldung
So, 22.04. 9:40 1016 keine Meldung
So, 22.04. 9:30 1016 + 0,3
So, 22.04. 9:00 1016 + 0,4
So, 22.04. 8:30 1016 + 0,2
So, 22.04. 8:00 1016 - 0,3
So, 22.04. 7:30 1016 - 0,7
Ortszeit Schneehöhe (cm)
So, 22.04. 8:00 0
So, 22.04. 2:00 0
Sa, 21.04. 20:00 0
Sa, 21.04. 14:00 0
Sa, 21.04. 8:00 0
Sa, 21.04. 2:00 0
Fr, 20.04. 20:00 0
Fr, 20.04. 14:00 0
Ortszeit Schneehöhe (cm)
So, 22.04. 10:30 0
So, 22.04. 10:20 0
So, 22.04. 10:10 0
So, 22.04. 10:00 0
So, 22.04. 9:50 0
So, 22.04. 9:40 0
So, 22.04. 9:30 0
So, 22.04. 9:00 0
So, 22.04. 8:30 0
So, 22.04. 8:00 0
So, 22.04. 7:30 0
Link zu dieser Seite / Seite empfehlen

Das Wetter in ...